User: anonymous   Login
Location: Bartshausen
(51.8454°N, 9.8167°E)
Time: 20:33:00
(UTC+00:00)
Language:

Cosmos 1190 Rocket - Orbit

View from above orbital plane
View from above orbital plane
View from above satellite
View from above satellite

Ground track
Ground track

The orbit is defined by the following mean orbital elements,

1 11870U          26022.49528883 +.00000000 +00000-0 +20316-3 0 00004
2 11870  74.0514 195.1564 0014977  85.5907 274.6958 14.38355115    00
Epoch (UTC): 22 January 2026 11:53:12
Eccentricity: 0.0014977
inclination: 74.0514°
perigee height: 753 km
apogee height: 775 km
right ascension of ascending node: 195.1564°
argument of perigee: 85.5907°
revolutions per day: 14.38355115
mean anomaly at epoch: 274.6958°

The dashed part of the orbit path shows where the satellite is in the earth's shadow,  

DLR